NU3S-7 Weather Reports


time (UTC)temp
C
wind
direction
speed
KPH
gust
KPH
rain 1hr
cm
rain 24hr
cm
rain mn
cm
humidity
%
barometer
mb
20260510071511 12 0 0.0 0.0 0.00 0.00 0.23 100 1009.8
20260510071311 12 0 0.0 0.0 0.00 0.00 0.23 100 1009.8
20260510070508 12 179 0.0 3.2 0.00 0.00 0.23 100 1010.2
20260510070310 12 179 0.0 3.2 0.00 0.00 0.23 100 1010.2
20260510065511 12 273 0.0 4.8 0.00 0.00 0.23 100 1010.6
20260510065310 12 273 0.0 4.8 0.00 0.00 0.23 100 1010.6
20260510064511 12 158 0.0 4.8 0.00 0.00 0.23 100 1010.1
20260510064310 12 158 0.0 4.8 0.00 0.00 0.23 100 1010.1
20260510063510 12 0 0.0 0.0 0.00 0.00 0.20 100 1009.7
20260510063309 12 0 0.0 0.0 0.00 0.00 0.20 100 1009.7
20260510055511 12 357 0.0 4.8 0.00 0.00 0.20 100 1010.6
20260510055306 12 357 0.0 4.8 0.00 0.00 0.20 100 1010.6
20260510054509 12 345 8.0 19.3 0.00 0.00 0.20 100 1010.7
20260510054303 12 345 8.0 19.3 0.00 0.00 0.20 100 1010.7
20260510053504 12 72 1.6 8.0 0.00 0.00 0.20 100 1009.9
20260510053303 12 72 1.6 8.0 0.00 0.00 0.20 100 1009.9
20260510052306 12 359 1.6 14.5 0.00 0.00 0.20 100 1010.4
20260510051302 12 349 3.2 12.9 0.00 0.00 0.15 100 1010.1
20260510050302 12 0 0.0 0.0 0.00 0.00 0.08 100 1009.8
20260510045301 12 283 0.0 1.6 0.00 0.00 0.03 100 1010.0
20260510044301 12 163 0.0 4.8 0.00 0.00 0.00 100 1009.8
20260510043334 12 184 1.6 4.8 0.00 0.00 0.00 100 1009.7
20260510043300 12 184 1.6 4.8 0.00 0.00 0.00 100 1009.7
20260510041300 12 180 1.6 6.4 0.00 0.00 0.00 100 1009.5
20260510040259 12 131 0.0 4.8 0.00 0.00 0.00 100 1009.6
20260510035259 12 197 0.0 1.6 0.00 0.00 0.81 100 1009.6
20260510034257 12 167 0.0 3.2 0.00 0.00 0.81 100 1009.7
20260510033256 12 0 0.0 0.0 0.00 0.00 0.81 100 1009.6
20260510032256 12 0 0.0 0.0 0.00 0.00 0.81 100 1009.9
20260510031255 12 0 0.0 0.0 0.00 0.00 0.76 100 1010.4
20260510030255 12 0 0.0 0.0 0.00 0.00 0.66 99 1010.8
20260510025253 12 353 0.0 6.4 0.00 0.00 0.53 98 1010.7
20260510024253 12 55 3.2 11.3 0.00 0.00 0.46 97 1010.6
20260510020249 16 208 3.2 9.7 0.00 0.00 0.23 82 1008.3
20260510015253 16 222 4.8 14.5 0.00 0.00 0.23 81 1008.1
20260510014246 16 239 4.8 11.3 0.00 0.00 0.23 82 1007.9
20260510012245 16 155 3.2 8.0 0.00 0.00 0.23 81 1007.7
20260510011245 16 204 3.2 9.7 0.00 0.00 0.23 80 1007.6
20260510010244 16 222 1.6 4.8 0.00 0.00 0.23 79 1007.6
20260510005244 16 181 1.6 4.8 0.00 0.00 0.23 78 1007.5
20260510004244 17 218 3.2 9.7 0.00 0.00 0.23 77 1007.5
20260510003435 17 218 4.8 9.7 0.00 0.00 0.23 76 1007.4
20260510003243 17 218 4.8 9.7 0.00 0.00 0.23 76 1007.4
20260510001243 17 158 4.8 14.5 0.00 0.00 0.23 74 1007.3
20260510000242 17 232 4.8 12.9 0.00 0.00 0.23 73 1007.1
20260509233508 18 232 4.8 11.3 0.00 0.00 0.23 73 1007.0
20260509232312 18 212 8.0 20.9 0.00 0.00 0.23 72 1006.9
20260509232241 18 212 8.0 20.9 0.00 0.00 0.23 72 1006.9
20260509225239 18 278 9.7 20.9 0.00 0.00 0.23 72 1006.7
20260509224317 18 210 6.4 11.3 0.00 0.00 0.23 72 1006.8
20260509222253 19 262 4.8 16.1 0.00 0.00 0.23 73 1006.6
20260509221504 19 166 6.4 14.5 0.00 0.00 0.23 72 1006.9
20260509220250 19 260 4.8 14.5 0.00 0.00 0.23 73 1007.1
20260509213244 19 197 9.7 19.3 0.00 0.00 0.23 73 1007.1
20260509211239 19 256 9.7 30.6 0.00 0.00 0.23 74 1007.2
20260509210304 18 270 9.7 22.5 0.00 0.00 0.23 73 1007.3
20260509205259 19 290 9.7 24.1 0.00 0.00 0.23 75 1007.5
20260509204255 18 274 9.7 19.3 0.00 0.00 0.23 75 1007.7
20260509203243 18 260 8.0 16.1 0.00 0.00 0.23 78 1007.5
20260509201237 18 259 8.0 22.5 0.00 0.00 0.23 80 1007.9
20260509195231 18 218 6.4 17.7 0.00 0.00 0.23 83 1008.2
20260509194229 17 217 8.0 14.5 0.00 0.00 0.23 83 1008.3
20260509192231 17 217 8.0 16.1 0.00 0.00 0.23 85 1008.4
20260509190226 16 211 8.0 17.7 0.00 0.00 0.23 86 1008.8
20260509185233 16 274 11.3 25.7 0.00 0.00 0.23 85 1008.9
20260509184226 16 283 9.7 24.1 0.00 0.00 0.23 87 1008.9
20260509183225 16 270 8.0 22.5 0.00 0.00 0.23 88 1008.9
20260509180224 15 278 8.0 20.9 0.00 0.00 0.23 92 1009.3
20260509175225 15 290 8.0 17.7 0.00 0.00 0.23 93 1009.3
20260509173229 15 283 8.0 20.9 0.00 0.00 0.23 95 1009.3
20260509172237 14 218 3.2 9.7 0.00 0.00 0.23 96 1009.2
20260509171229 14 203 6.4 16.1 0.00 0.00 0.23 96 1009.0
20260509170232 14 225 8.0 16.1 0.00 0.00 0.23 97 1009.0
20260509165224 13 285 6.4 14.5 0.00 0.00 0.23 99 1008.8
20260509164232 13 293 6.4 12.9 0.00 0.00 0.23 100 1008.8
20260509163220 13 224 4.8 11.3 0.00 0.00 0.23 100 1008.7
20260509161219 12 183 1.6 8.0 0.00 0.00 0.23 100 1008.7
20260509155218 11 166 0.0 3.2 0.00 0.00 0.23 100 1008.7
20260509154505 11 231 0.0 4.8 0.00 0.00 0.23 100 1008.9
20260509154218 11 231 0.0 4.8 0.00 0.00 0.23 100 1008.9
20260509153248 11 276 0.0 4.8 0.00 0.00 0.23 100 1008.9
20260509153217 11 276 0.0 4.8 0.00 0.00 0.23 100 1008.9
20260509152217 11 287 1.6 8.0 0.00 0.00 0.23 100 1008.8
20260509151216 11 274 0.0 4.8 0.00 0.00 0.23 100 1008.7
20260509150357 11 224 3.2 9.7 0.00 0.00 0.20 100 1008.7
20260509150216 11 224 3.2 9.7 0.00 0.00 0.20 100 1008.7
20260509145215 11 211 3.2 12.9 0.00 0.00 0.20 100 1008.8
20260509144215 11 249 1.6 9.7 0.00 0.00 0.20 100 1008.7
20260509143215 11 215 3.2 9.7 0.00 0.00 0.20 100 1008.6
20260509141301 11 138 4.8 12.9 0.00 0.00 0.20 100 1008.8
20260509141212 11 138 4.8 12.9 0.00 0.00 0.20 100 1008.8
20260509140210 11 214 1.6 9.7 0.00 0.00 0.20 100 1008.8
20260509135342 11 242 1.6 11.3 0.00 0.00 0.20 100 1008.8
20260509135210 11 242 1.6 11.3 0.00 0.00 0.20 100 1008.8
20260509134207 11 226 3.2 9.7 0.00 0.00 0.20 100 1008.9
20260509132205 10 210 1.6 8.0 0.00 0.00 0.18 100 1009.0
20260509131205 10 277 1.6 9.7 0.00 0.00 0.18 100 1009.0
20260509130412 10 231 0.0 6.4 0.00 0.00 0.18 100 1009.3
20260509130205 10 231 0.0 6.4 0.00 0.00 0.18 100 1009.3
20260509125337 10 222 1.6 6.4 0.00 0.00 0.18 100 1009.4
20260509125204 10 222 1.6 6.4 0.00 0.00 0.18 100 1009.4
20260509124253 10 180 1.6 6.4 0.00 0.00 0.18 100 1009.3
20260509124204 10 180 1.6 6.4 0.00 0.00 0.18 100 1009.3
20260509123202 10 221 3.2 9.7 0.00 0.00 0.15 100 1009.3
20260509122421 10 225 1.6 6.4 0.00 0.00 0.15 100 1009.4
20260509122201 10 225 1.6 6.4 0.00 0.00 0.15 100 1009.4
20260509121506 10 232 1.6 6.4 0.00 0.00 0.13 100 1009.4
20260509121201 10 232 1.6 6.4 0.00 0.00 0.13 100 1009.4
20260509120200 10 218 3.2 9.7 0.00 0.00 0.13 100 1009.4
20260509115200 10 195 1.6 6.4 0.00 0.00 0.10 100 1009.3
20260509113159 10 179 3.2 11.3 0.00 0.00 0.08 100 1009.2
20260509112240 10 221 4.8 9.7 0.00 0.00 0.08 100 1009.2
20260509112159 10 221 4.8 9.7 0.00 0.00 0.08 100 1009.2
20260509111237 10 212 4.8 11.3 0.00 0.00 0.05 100 1009.0
20260509111158 10 212 4.8 11.3 0.00 0.00 0.05 100 1009.0
20260509110158 10 276 6.4 14.5 0.00 0.00 0.03 100 1008.9
20260509105506 10 217 6.4 12.9 0.00 0.00 0.03 100 1008.8
20260509105158 10 217 6.4 12.9 0.00 0.00 0.03 100 1008.8
20260509104505 10 215 1.6 11.3 0.00 0.00 0.03 100 1008.7
20260509104157 10 215 1.6 11.3 0.00 0.00 0.03 100 1008.7
20260509103505 10 253 6.4 16.1 0.00 0.00 0.03 100 1008.8
20260509103157 10 253 6.4 16.1 0.00 0.00 0.03 100 1008.8
20260509102504 10 198 4.8 12.9 0.00 0.00 0.03 100 1008.8
20260509102156 10 198 4.8 12.9 0.00 0.00 0.03 100 1008.8
20260509101156 10 201 4.8 12.9 0.00 0.00 0.03 100 1008.8
20260509095410 10 215 4.8 8.0 0.00 0.00 0.03 100 1008.9
20260509095155 10 215 4.8 8.0 0.00 0.00 0.03 100 1008.9
20260509094155 10 222 4.8 12.9 0.00 0.00 0.03 100 1009.0
20260509093155 10 233 1.6 9.7 0.00 0.00 0.03 100 1009.2
20260509092503 10 226 3.2 8.0 0.00 0.00 0.03 100 1009.3
20260509092154 10 226 3.2 8.0 0.00 0.00 0.03 100 1009.3
20260509091355 10 214 3.2 9.7 0.00 0.00 0.03 100 1009.4
20260509091154 10 214 3.2 9.7 0.00 0.00 0.03 100 1009.4
20260509090504 10 0 0.0 0.0 0.00 0.00 0.00 100 1009.4
20260509090154 10 0 0.0 0.0 0.00 0.00 0.00 100 1009.4
20260509085506 9 0 0.0 0.0 0.00 0.00 0.00 100 1009.6
20260509085153 9 0 0.0 0.0 0.00 0.00 0.00 100 1009.6
20260509084224 10 0 0.0 0.0 0.00 0.00 0.00 100 1009.6
20260509084153 10 0 0.0 0.0 0.00 0.00 0.00 100 1009.6
20260509083230 9 0 0.0 0.0 0.00 0.00 0.00 100 1009.5
20260509083152 9 0 0.0 0.0 0.00 0.00 0.00 100 1009.5
20260509082506 9 0 0.0 0.0 0.00 0.00 0.00 100 1009.6
20260509082152 9 0 0.0 0.0 0.00 0.00 0.00 100 1009.6
20260509081504 10 0 0.0 0.0 0.00 0.00 0.00 100 1009.5
20260509081152 10 0 0.0 0.0 0.00 0.00 0.00 100 1009.5
20260509080505 10 0 0.0 0.0 0.00 0.00 0.00 100 1009.3
20260509080151 10 0 0.0 0.0 0.00 0.00 0.00 100 1009.3
20260509075151 10 0 0.0 0.0 0.00 0.00 0.00 100 1009.5
20260509074504 10 0 0.0 0.0 0.00 0.00 0.00 100 1009.5
20260509074149 10 0 0.0 0.0 0.00 0.00 0.00 100 1009.5
20260509073505 10 0 0.0 0.0 0.00 0.00 0.00 100 1009.3
20260509073148 10 0 0.0 0.0 0.00 0.00 0.00 100 1009.3
20260509072148 10 0 0.0 0.0 0.00 0.00 0.00 100 1008.9